TimeCST,TemperatureF,Dew PointF,Humidity,Sea Level PressureIn,VisibilityMPH,Wind Direction,Wind SpeedMPH,Gust SpeedMPH,PrecipitationIn,Events,Conditions,WindDirDegrees,DateUTC
12:53 AM,15.1,1.9,56,30.21,10.0,WNW,9.2,-,N/A,,Partly Cloudy,290,2013-01-21 06:53:00
1:53 AM,16.0,3.0,57,30.19,10.0,West,9.2,-,N/A,,Overcast,270,2013-01-21 07:53:00
2:53 AM,15.1,3.9,61,30.19,10.0,West,11.5,-,N/A,,Clear,270,2013-01-21 08:53:00
3:53 AM,14.0,3.0,62,30.17,10.0,West,17.3,-,N/A,,Scattered Clouds,280,2013-01-21 09:53:00
4:53 AM,12.9,3.0,65,30.16,10.0,West,13.8,-,N/A,,Overcast,280,2013-01-21 10:53:00
5:53 AM,12.9,3.9,67,30.17,10.0,West,13.8,-,N/A,,Overcast,270,2013-01-21 11:53:00
6:34 AM,12.2,6.8,79,30.11,3.0,West,10.4,-,0.00,Snow,Light Snow,260,2013-01-21 12:34:00
6:43 AM,12.2,6.8,79,30.12,2.5,West,11.5,-,0.00,Snow,Light Snow,260,2013-01-21 12:43:00
6:53 AM,12.0,7.0,80,30.16,2.5,West,8.1,-,0.00,Snow,Light Snow,280,2013-01-21 12:53:00
7:01 AM,12.2,6.8,79,30.12,3.0,West,11.5,-,0.00,Snow,Light Snow,270,2013-01-21 13:01:00
7:03 AM,12.2,6.8,79,30.12,1.5,West,10.4,-,0.00,Snow,Light Snow,280,2013-01-21 13:03:00
7:25 AM,12.2,6.8,79,30.12,0.8,West,11.5,-,0.00,Snow,Light Snow,280,2013-01-21 13:25:00
7:32 AM,10.4,6.8,85,30.12,2.0,West,9.2,-,0.00,Snow,Light Snow,270,2013-01-21 13:32:00
7:34 AM,10.4,6.8,85,30.12,3.0,West,11.5,-,0.00,Snow,Light Snow,260,2013-01-21 13:34:00
7:46 AM,10.4,3.2,73,30.12,10.0,West,10.4,-,0.00,,Scattered Clouds,270,2013-01-21 13:46:00
7:53 AM,10.9,3.9,73,30.17,10.0,West,10.4,-,0.00,,Scattered Clouds,270,2013-01-21 13:53:00
8:37 AM,12.2,5.0,73,30.13,2.5,West,11.5,-,0.00,Snow,Light Snow,270,2013-01-21 14:37:00
8:46 AM,10.4,5.0,79,30.13,1.0,West,11.5,-,0.00,Snow,Light Snow,270,2013-01-21 14:46:00
8:53 AM,12.0,6.1,77,30.17,1.2,West,11.5,-,0.00,Snow,Light Snow,270,2013-01-21 14:53:00
9:30 AM,12.2,5.0,73,30.14,3.0,NW,10.4,-,0.00,Snow,Light Snow,310,2013-01-21 15:30:00
9:53 AM,12.0,3.9,70,30.19,1.5,WNW,15.0,21.9,0.00,Snow,Light Snow,300,2013-01-21 15:53:00
10:02 AM,10.4,6.8,85,30.14,0.5,West,15.0,21.9,0.00,Snow,Snow,280,2013-01-21 16:02:00
10:23 AM,12.2,6.8,79,30.14,1.0,WNW,10.4,-,0.00,Snow,Light Snow,290,2013-01-21 16:23:00
10:28 AM,14.0,6.8,73,30.14,4.0,West,16.1,24.2,0.00,Snow,Light Snow,280,2013-01-21 16:28:00
10:35 AM,12.2,3.2,67,30.14,8.0,West,19.6,-,0.00,,Overcast,270,2013-01-21 16:35:00
10:42 AM,10.4,3.2,73,30.14,2.0,West,15.0,-,0.00,Snow,Light Snow,280,2013-01-21 16:42:00
10:49 AM,10.4,5.0,79,30.14,1.0,WNW,15.0,-,0.00,Snow,Light Snow,290,2013-01-21 16:49:00
10:53 AM,10.9,5.0,77,30.19,1.2,WNW,13.8,-,0.00,Snow,Light Snow,290,2013-01-21 16:53:00
11:02 AM,8.6,3.2,79,30.14,1.0,West,17.3,25.3,0.00,Snow,Light Snow,280,2013-01-21 17:02:00
11:07 AM,10.4,3.2,73,30.14,2.5,WNW,16.1,-,0.00,Snow,Light Snow,290,2013-01-21 17:07:00
11:12 AM,12.2,1.4,62,30.14,9.0,WNW,21.9,-,0.00,,Mostly Cloudy,290,2013-01-21 17:12:00
11:53 AM,12.0,-0.9,56,30.18,10.0,West,20.7,26.5,0.00,,Clear,280,2013-01-21 17:53:00
12:53 PM,10.9,-2.0,56,30.18,10.0,West,19.6,27.6,N/A,,Overcast,270,2013-01-21 18:53:00
1:53 PM,10.9,-0.9,59,30.19,10.0,West,18.4,27.6,N/A,,Overcast,260,2013-01-21 19:53:00
2:53 PM,10.9,-4.0,51,30.20,10.0,West,15.0,25.3,N/A,,Partly Cloudy,280,2013-01-21 20:53:00
3:53 PM,10.9,-5.1,49,30.21,10.0,West,15.0,-,N/A,,Clear,270,2013-01-21 21:53:00
4:53 PM,9.0,-6.0,51,30.22,10.0,West,17.3,-,N/A,,Clear,280,2013-01-21 22:53:00
5:53 PM,8.1,-6.0,53,30.23,10.0,West,11.5,-,N/A,,Clear,260,2013-01-21 23:53:00
6:53 PM,7.0,-5.1,58,30.25,10.0,West,12.7,-,N/A,,Clear,260,2013-01-22 00:53:00
7:53 PM,6.1,-5.1,60,30.26,10.0,West,11.5,-,N/A,,Clear,270,2013-01-22 01:53:00
8:53 PM,6.1,-5.1,60,30.28,10.0,West,12.7,20.7,N/A,,Clear,270,2013-01-22 02:53:00
9:53 PM,5.0,-5.1,63,30.28,10.0,West,10.4,-,N/A,,Clear,270,2013-01-22 03:53:00
10:53 PM,5.0,-5.1,63,30.29,10.0,West,12.7,-,N/A,,Clear,280,2013-01-22 04:53:00
11:53 PM,5.0,-7.1,58,30.30,10.0,West,13.8,21.9,N/A,,Partly Cloudy,280,2013-01-22 05:53:00